Flag for Poland Weather past 2 weeks in Olsztyn, Poland

Now
53 °F

Fog.


Feels Like: 53 °F
Forecast: 48 / 79 °F
Wind: 2 mph from South

Location: Ketrzyn

Current Time: Aug 29, 2015 at 9:45:44 AM

Latest Report: Aug 29, 2015 at 7:00 AM


Visibility: 6 mi

Pressure: 30.19 "Hg

Humidity: 98%

Dew point: 53 °F

Location of OlsztynLocation

Historic Weather in Olsztyn — Graph

°F

Olsztyn temperature yesterday

Maximum temperature yesterday: 71 °F (at 10:00 AM)
Minimum temperature yesterday: 60 °F (at 9:00 PM)
Average temperature yesterday: 66 °F

Past Weeks' High & Low Weather Summary

 TemperatureHumidityPressure
High84 °F (Aug 24, 4:00 PM)98% (Aug 29, 3:00 AM)30.41 "Hg (Aug 29, 3:00 AM)
Low49 °F (Aug 22, 5:00 AM)25% (Aug 16, 2:00 PM)29.83 "Hg (Aug 28, 7:00 AM)
Average67 °F55%30.09 "Hg
* Reported Aug 14 7:00 AM — Aug 29 7:00 AM, Olsztyn, Weather by CustomWeather, © 2015

Note: Actual official high and low records may vary slightly from our data, if they occured in-between our weather recording intervals... More about our weather records

Advertising

Olsztyn weather history for previous 24 hours

 ConditionsComfort  
Time TempWeatherWind HumidityBarometerVisibility
7:00 AM
Sat, Aug 29
53 °FFog.2 mph98%30.19 "Hg6 mi
6:00 AM52 °FCool.2 mph98%30.17 "Hg4 mi
3:00 AM54 °FDuststorm.1 mph98%30.14 "Hg0 mi
1:00 AM55 °FDuststorm.1 mph97%30.11 "Hg0 mi
9:00 PM
Fri, Aug 28
60 °FCool.1 mph95%30.06 "Hg7 mi
8:00 PM60 °FCool.1 mph94%30.05 "Hg12 mi
7:00 PM61 °FCool.2 mph94%30.04 "Hg17 mi
6:00 PM62 °FDrizzle. Cloudy.3 mph91%30.03 "Hg5 mi
5:00 PM65 °FMild.3 mph81%30.01 "Hg28 mi
4:00 PM65 °FMild.5 mph80%30.00 "Hg28 mi
3:00 PM65 °FDrizzle. Cloudy.5 mph85%29.98 "Hg6 mi
2:00 PM65 °FMild.5 mph89%29.96 "Hg19 mi
1:00 PM66 °FLight rain. Cloudy.3 mph91%29.94 "Hg10 mi
12:00 PM68 °FRain showers. Cloudy.3 mph80%29.91 "Hg7 mi
11:00 AM70 °FMild.3 mph70%29.89 "Hg13 mi
10:00 AM71 °FLight rain. Cloudy.5 mph64%29.89 "Hg11 mi
9:00 AM70 °FMild.3 mph67%29.86 "Hg11 mi
Weather by CustomWeather, © 2015

See weather overviewHow to use our weather pages